HELIOS 2A

Satellite information

Favourite Embed

Satellite Type and Status

PAYLOADIN ORBIT

Key statistics

Satellite HELIOS 2A at a glance.

Uptime

7666

Days in orbit

Revolutions

≈ 15.0

Per day

Orbit

SSO

Sun Synchronous Orbit

Inclination

98.3

Latest

Satellite identification and parameters

Extended collection of information and parameters for HELIOS 2A.

Object identification

Identified? True

Debris? False

Object name: HELIOS 2A

International designator: 2004-049A

Object number (NORAD): 28492

Object ID (CCSDS): 28492

Country: FRANCE (FR)

Current information (Y/N): Y

RCS size: LARGE

Orbital parameters

Period: 95.869 minutes

Inclination: 98.2858 deg

SMA: 6938.721 km

Apoapsis: 562.358 km

Periapsis: 558.815 km

RAAN: 24.0988 deg

Eccentricy: 0.0002553

Argument of periapsis: 156.5639 deg

Mean anomaly: 203.5701 deg

Mean motion: 15.02047281 rev/day

Mean motion (dot): 0.00002674 rev/day2

B* drag term: 0.00020900964 1/REarth

Two-line elements (TLE)

Creation date: Dec. 14, 2025, 3:07 a.m.

Reference frame: TEME

Reference center: EARTH

Epoch: Dec. 13, 2025, 4:38 p.m. UTC

TLE line 0: 0 HELIOS 2A

TLE line 1: 1 28492U 04049A 25347.69337495 .00002674 00000-0 20901-3 0 9993

TLE line 2: 2 28492 98.2858 24.0988 0002553 156.5639 203.5701 15.02047281125914

Live tracking on map

Real-time ground track for satellite HELIOS 2A.

In-orbit conjunctions

There are no conjunctions computed for HELIOS 2A, at the moment. Check back to stay up to date, as we update our databases every day.

Go to all conjunctions

Associated space launch

Helios and Essaim are French miltary satellites for observation of Earth. Parasol is an Earth Observation research satellite.Nanosat 01 is a small technologu demonstator for the spanish space agency INTA.

HELIOS 2A was lifted into orbit during the mission ‘Ariane 5 G+ | Helios 2A, Essaim 1, 2, 3, 4, PARASOL, Nanosat 01’, on board a Ariane 5 G+ space rocket.

The launch took place on Dec. 18, 2004, 4:26 p.m. from Ariane Launch Area 3.

For more information about the launch, click the button.

Launch to space Ariane 5 G+ | Helios 2A, Essaim 1, 2, 3, 4, PARASOL, Nanosat 01
Ariane 5 G+ | Helios 2A, Essaim 1, 2, 3, 4, PARASOL, Nanosat 01

Agency: N/A

Status: Launch Successful

Launch date: Dec. 18, 2004, 4:26 p.m. UTC

Rocket: Ariane 5 G+

Launch pad: Ariane Launch Area 3

Location: Guiana Space Centre, French Guiana

...

Latest news about this satellite

There are no fresh news available about this satellite. Check back as we update our databases every day.


Newsletter sign-up

Weekly statistics, charts and insights to help you stay on top of the space industry.